When you browse on this site, cookies collect data to enhance your experience and personalize the content and advertising you see.
Visit our Privacy Policy to learn more. By continuing to use the site, you agree to this use of cookies and data.
  • In Schweiz
  • Länderverzeichnis
  • Für 7 Tage
  • Wassertemperatur
  • Wetterkarte
  • Widgets
  • user-avatar
    Anmelden

    Stündliche Wetter Thimbu

    Heute, 16 Dezember, Montag

    Zeit Temperatur Niederschläge Wind Luftdruck Luftfeuchtigkeit
    00:00 -5°C° 0 mm 2 m/S 518 mmHg 80%
    01:00 -3°C° 0 mm 1 m/S 518 mmHg 79%
    02:00 -3°C° 0 mm 1 m/S 518 mmHg 79%
    03:00 -3°C° 0 mm 1 m/S 518 mmHg 78%
    04:00 -3°C° 0 mm 1 m/S 518 mmHg 76%
    05:00 -4°C° 0 mm 1 m/S 518 mmHg 74%
    06:00 -4°C° 0 mm 1 m/S 518 mmHg 72%
    07:00 -1°C° 0 mm 1 m/S 520 mmHg 61%
    08:00 +1°C° 0 mm 1 m/S 521 mmHg 50%
    09:00 +4°C° 0 mm 1 m/S 523 mmHg 38%
    10:00 +5°C° 0 mm 1 m/S 524 mmHg 35%
    11:00 +5°C° 0 mm 2 m/S 524 mmHg 32%
    12:00 +6°C° 0 mm 2 m/S 525 mmHg 29%
    13:00 +6°C° 0 mm 2 m/S 524 mmHg 33%
    14:00 +6°C° 0 mm 2 m/S 523 mmHg 37%
    15:00 +4°C° 0 mm 3 m/S 523 mmHg 42%
    16:00 +2°C° 0 mm 2 m/S 521 mmHg 58%
    17:00 +1°C° 0 mm 1 m/S 520 mmHg 74%
    18:00 -2°C° 0 mm 1 m/S 518 mmHg 90%
    19:00 -2°C° 0 mm 1 m/S 519 mmHg 88%
    20:00 -2°C° 0 mm 1 m/S 519 mmHg 86%
    21:00 -2°C° 0 mm 1 m/S 519 mmHg 84%
    22:00 -3°C° 0 mm 1 m/S 519 mmHg 83%
    23:00 -3°C° 0 mm 1 m/S 519 mmHg 82%

    Morgen, 17 Dezember, Dienstag

    Zeit Temperatur Niederschläge Wind Luftdruck Luftfeuchtigkeit
    00:00 -3°C° 0 mm 1 m/S 519 mmHg 81%
    01:00 -3°C° 0 mm 1 m/S 519 mmHg 80%
    02:00 -4°C° 0 mm 1 m/S 518 mmHg 78%
    03:00 -4°C° 0 mm 1 m/S 518 mmHg 77%
    04:00 -4°C° 0 mm 1 m/S 518 mmHg 74%
    05:00 -4°C° 0 mm 1 m/S 518 mmHg 72%
    06:00 -6°C° 0 mm 1 m/S 518 mmHg 69%
    07:00 -2°C° 0 mm 1 m/S 520 mmHg 60%
    08:00 0°C° 0 mm 1 m/S 522 mmHg 50%
    09:00 +2°C° 0 mm 0 m/S 523 mmHg 40%
    10:00 +4°C° 0 mm 1 m/S 524 mmHg 38%
    11:00 +4°C° 0 mm 2 m/S 524 mmHg 35%
    12:00 +5°C° 0 mm 2 m/S 524 mmHg 32%
    13:00 +5°C° 0.1 mm 2 m/S 523 mmHg 39%
    14:00 +4°C° 0.1 mm 2 m/S 523 mmHg 46%
    15:00 +4°C° 0.1 mm 2 m/S 522 mmHg 54%
    16:00 +1°C° 0 mm 2 m/S 521 mmHg 66%
    17:00 0°C° 0 mm 1 m/S 519 mmHg 79%
    18:00 -2°C° 0 mm 1 m/S 518 mmHg 92%
    19:00 -2°C° 0 mm 1 m/S 519 mmHg 87%
    20:00 -2°C° 0 mm 1 m/S 519 mmHg 82%
    21:00 -2°C° 0 mm 1 m/S 519 mmHg 77%
    22:00 -2°C° 0 mm 1 m/S 519 mmHg 73%
    23:00 -3°C° 0 mm 1 m/S 519 mmHg 69%

    übermorgen, 18 Dezember, Mittwoch

    Zeit Temperatur Niederschläge Wind Luftdruck Luftfeuchtigkeit
    00:00 -3°C° 0 mm 1 m/S 518 mmHg 64%
    01:00 -3°C° 0 mm 1 m/S 518 mmHg 61%
    02:00 -3°C° 0 mm 1 m/S 518 mmHg 57%
    03:00 -5°C° 0 mm 2 m/S 517 mmHg 53%
    04:00 -6°C° 0 mm 2 m/S 518 mmHg 50%
    05:00 -4°C° 0 mm 1 m/S 518 mmHg 47%
    06:00 -4°C° 0 mm 1 m/S 518 mmHg 44%
    07:00 -1°C° 0 mm 1 m/S 520 mmHg 39%
    08:00 +2°C° 0 mm 1 m/S 522 mmHg 34%
    09:00 +4°C° 0 mm 1 m/S 524 mmHg 29%
    10:00 +6°C° 0 mm 1 m/S 524 mmHg 29%
    11:00 +6°C° 0 mm 2 m/S 525 mmHg 30%
    12:00 +8°C° 0 mm 2 m/S 526 mmHg 30%
    13:00 +7°C° 0 mm 2 m/S 525 mmHg 37%
    14:00 +7°C° 0 mm 2 m/S 524 mmHg 43%
    15:00 +6°C° 0 mm 2 m/S 523 mmHg 50%
    16:00 +4°C° 0 mm 2 m/S 522 mmHg 63%
    17:00 +2°C° 0 mm 1 m/S 520 mmHg 76%
    18:00 0°C° 0 mm 1 m/S 519 mmHg 89%
    19:00 0°C° 0 mm 1 m/S 519 mmHg 87%
    20:00 -1°C° 0 mm 0 m/S 520 mmHg 85%
    21:00 -1°C° 0 mm 0 m/S 520 mmHg 83%
    22:00 -1°C° 0 mm 0 m/S 519 mmHg 82%
    23:00 -2°C° 0 mm 0 m/S 519 mmHg 82%

    19 Dezember, Donnerstag

    Zeit Temperatur Niederschläge Wind Luftdruck Luftfeuchtigkeit
    00:00 -2°C° 0 mm 0 m/S 519 mmHg 81%
    01:00 -1°C° 0 mm 1 m/S 518 mmHg 80%
    02:00 -2°C° 0 mm 1 m/S 518 mmHg 79%
    03:00 -2°C° 0 mm 1 m/S 517 mmHg 78%
    04:00 -2°C° 0 mm 1 m/S 517 mmHg 75%
    05:00 -3°C° 0 mm 1 m/S 517 mmHg 73%
    06:00 -3°C° 0 mm 1 m/S 517 mmHg 71%
    07:00 0°C° 0 mm 1 m/S 519 mmHg 62%
    08:00 +2°C° 0 mm 1 m/S 521 mmHg 53%
    09:00 +5°C° 0 mm 1 m/S 523 mmHg 45%
    10:00 +6°C° 0 mm 1 m/S 523 mmHg 43%
    11:00 +6°C° 0 mm 2 m/S 523 mmHg 42%
    12:00 +8°C° 0 mm 2 m/S 524 mmHg 41%
    13:00 +7°C° 0 mm 2 m/S 523 mmHg 46%
    14:00 +7°C° 0 mm 2 m/S 522 mmHg 52%
    15:00 +6°C° 0 mm 2 m/S 521 mmHg 57%
    16:00 +4°C° 0 mm 2 m/S 520 mmHg 70%
    17:00 +2°C° 0 mm 1 m/S 519 mmHg 83%
    18:00 -1°C° 0 mm 0 m/S 517 mmHg 96%
    19:00 -1°C° 0 mm 0 m/S 518 mmHg 95%
    20:00 -1°C° 0 mm 0 m/S 518 mmHg 94%
    21:00 0°C° 0 mm 0 m/S 519 mmHg 94%
    22:00 -1°C° 0 mm 0 m/S 519 mmHg 93%
    23:00 -1°C° 0 mm 0 m/S 518 mmHg 92%

    20 Dezember, Freitag

    Zeit Temperatur Niederschläge Wind Luftdruck Luftfeuchtigkeit
    00:00 -1°C° 0 mm 0 m/S 518 mmHg 91%
    01:00 -1°C° 0 mm 0 m/S 518 mmHg 90%
    02:00 -2°C° 0 mm 0 m/S 517 mmHg 89%
    03:00 -2°C° 0 mm 0 m/S 517 mmHg 88%
    04:00 -2°C° 0 mm 0 m/S 516 mmHg 87%
    05:00 -2°C° 0 mm 1 m/S 516 mmHg 85%
    06:00 -2°C° 0 mm 1 m/S 516 mmHg 84%
    07:00 0°C° 0 mm 1 m/S 518 mmHg 75%
    08:00 +2°C° 0 mm 1 m/S 519 mmHg 66%
    09:00 +4°C° 0 mm 1 m/S 521 mmHg 57%
    10:00 +6°C° 0 mm 1 m/S 522 mmHg 55%
    11:00 +6°C° 0 mm 2 m/S 522 mmHg 53%
    12:00 +7°C° 0 mm 2 m/S 522 mmHg 50%
    13:00 +6°C° 0 mm 2 m/S 522 mmHg 55%
    14:00 +6°C° 0 mm 2 m/S 521 mmHg 60%
    15:00 +5°C° 0 mm 2 m/S 520 mmHg 64%
    16:00 +4°C° 0 mm 1 m/S 519 mmHg 74%
    17:00 +2°C° 0 mm 1 m/S 519 mmHg 84%
    18:00 -1°C° 0 mm 0 m/S 518 mmHg 94%
    19:00 -1°C° 0 mm 0 m/S 518 mmHg 94%
    20:00 -1°C° 0 mm 0 m/S 518 mmHg 93%
    21:00 -1°C° 0 mm 0 m/S 518 mmHg 92%
    22:00 -1°C° 0 mm 0 m/S 518 mmHg 91%
    23:00 -2°C° 0 mm 0 m/S 517 mmHg 90%

    21 Dezember, Samstag

    Zeit Temperatur Niederschläge Wind Luftdruck Luftfeuchtigkeit
    00:00 -1°C° 0 mm 1 m/S 517 mmHg 88%
    01:00 -1°C° 0 mm 1 m/S 517 mmHg 87%
    02:00 -1°C° 0 mm 1 m/S 517 mmHg 85%
    03:00 -1°C° 0 mm 1 m/S 516 mmHg 83%
    04:00 -2°C° 0 mm 1 m/S 516 mmHg 82%
    05:00 -2°C° 0 mm 1 m/S 516 mmHg 82%
    06:00 -2°C° 0 mm 1 m/S 516 mmHg 82%
    07:00 0°C° 0 mm 1 m/S 518 mmHg 73%
    08:00 +3°C° 0 mm 1 m/S 520 mmHg 64%
    09:00 +5°C° 0 mm 1 m/S 522 mmHg 55%
    10:00 +5°C° 0 mm 2 m/S 522 mmHg 52%
    11:00 +7°C° 0 mm 2 m/S 523 mmHg 50%
    12:00 +8°C° 0 mm 2 m/S 523 mmHg 48%
    13:00 +7°C° 0 mm 2 m/S 523 mmHg 51%
    14:00 +7°C° 0 mm 2 m/S 522 mmHg 55%
    15:00 +6°C° 0 mm 2 m/S 521 mmHg 58%
    16:00 +4°C° 0 mm 2 m/S 520 mmHg 70%
    17:00 +3°C° 0 mm 1 m/S 519 mmHg 81%
    18:00 0°C° 0 mm 1 m/S 518 mmHg 92%
    19:00 0°C° 0 mm 1 m/S 518 mmHg 91%
    20:00 0°C° 0 mm 1 m/S 518 mmHg 90%
    21:00 -1°C° 0 mm 1 m/S 518 mmHg 89%
    22:00 -1°C° 0 mm 1 m/S 518 mmHg 88%
    23:00 -1°C° 0 mm 1 m/S 518 mmHg 87%
    Mehr zeigen